Погода в Весело-Вознесенке

Россия / Ростовская область     47°08′27″N   38°20′10″E
темп.,
°C
ветер,
м/с
пор.,
м/с
влажн.,
%
обл.,
%
осадки,
мм/ч
давл.,
гПа
погр.,
м
11 апреля, вс
вс1100:00+9ссв41059100 0.0 1023309
03:00+8с61261100 0.0 1022412
06:00+7ссв61460100 0.0 1022542
09:00+9ссв8126088 0.0 1022718
12:00+11св8116467 0.0 1022976
15:00+11всв71175100 0.0 1022849
18:00+10св61179100 0.0 1021834
21:00+9св5983100 0.0 1021551
12 апреля, пн
пн1200:00+8ссв4786100 0.0 1020265
03:00+8с349097 0.0 1019104
06:00+9ссз2393100 1.1 101982
09:00+9з239695 3.3 1020117
12:00+11юз568889 0.0 1020473
15:00+13юз437588 0.0 1020760
18:00+11юз458187 0.0 1021299
21:00+9зюз3683100 0.0 1022193
13 апреля, вт
вт1300:00+9зюз3683100 0.0 1022228
03:00+9з358499 0.0 1022197
06:00+8зюз3587100 0.0 1022161
09:00+10зюз348186 0.0 1022354
12:00+13юз446774 0.0 1022694
15:00+13юз446368 0.0 1022769
18:00+11юз4571100 0.0 1021354
21:00+9юз368264 0.0 1022245
14 апреля, ср
ср1400:00+8юз248737 0.0 1021122
03:00+9юз238796 0.0 1021105
06:00+8зюз119295 0.0 102014
09:00+11ююз227775 0.0 1021430
12:00+14ююз436460 0.0 1020738
15:00+14ююз336259 0.0 1019663
18:00+13юз336745 0.0 1019365
21:00+10зюз227134 0.0 101930
15 апреля, чт
чт1500:00+9з22695 0.0 101719
03:00+9ссз22665 0.0 101710
06:00+8ссв116791 0.0 101710
09:00+12ю1257100 0.0 1017309
12:00+14ююз456788 0.0 1016730
15:00+15ююз466015 0.0 1015915
18:00+14юз3463100 0.0 1015368
21:00+11юз347319 0.0 101597